Погода в Малинди

Кения     3°13′00″S   40°06′36″E
темп.,
°C
ветер,
м/с
пор.,
м/с
влажн.,
%
обл.,
%
осадки,
мм/ч
давл.,
гПа
погр.,
м
27 ноября, сб
сб2700:00+25ююв368898 0.1 1012192
03:00+24ю3490100 0.8 1012131
06:00+23ююз2493100 2.9 1013115
09:00+28ю4573100 4.8 1014712
12:00+31ююв6553100 0.4 10121387
15:00+31ююв665787 0.4 10101071
18:00+27ююв577415 0.0 1011704
21:00+26ююв4781100 0.0 1013375
28 ноября, вс
вс2800:00+26ююв368317 0.1 1012267
03:00+25ююв248371 0.6 1011155
06:00+25ю228485 0.3 101299
09:00+30юв226271 1.0 10131137
12:00+30ююв326412 2.2 10121031
15:00+31юв646099 2.4 1009905
18:00+28юв577451 0.0 1010630
21:00+25ююв478690 1.4 1012236
29 ноября, пн
пн2900:00+25ююв488876 0.6 1012328
03:00+25юв338522 1.1 1011144
06:00+24ю118793 0.1 1012104
09:00+30вюв22625 0.1 1013993
12:00+32юв5351100 0.0 10111459
15:00+31юв5455100 0.0 1008990
18:00+27юв456949 0.0 1009446
21:00+26юв358172 0.0 1012176
30 ноября, вт
вт3000:00+25юв24865 0.0 1011139
03:00+24юв11925 3.2 101036
06:00+24юз11887 0.8 101284
09:00+29ююв11635 0.9 1013876
12:00+31вюв435587 0.6 10111323
15:00+31вюв435398 0.9 10091157
18:00+28вюв35685 0.0 1009406
21:00+26в358218 0.0 1011172
1 декабря, ср
ср100:00+26в358380 0.1 1010195
03:00+24в239195 3.3 101074
06:00+24св11906 1.9 101149
09:00+29вюв236796 3.1 1013782
12:00+32вюв545233 0.5 10111555
15:00+31вюв54536 0.6 10091136
18:00+28вюв45685 0.0 1009502
21:00+26вюв36814 0.0 1011210